N1OTX Weather Reports


Display with metric or nautical units.
time (UTC)temp
F
wind
direction
speed
MPH
gust
MPH
rain 1hr
in
rain 24hr
in
rain mn
in
humidity
%
barometer
mb
20260831174519 78 174 1.0 3.0 0.00 0.00 0.00 41 1019.2
20260831174021 78 85 1.0 4.0 0.00 0.00 0.00 42 1019.2
20260831173540 77 152 1.0 4.0 0.00 0.00 0.00 42 1019.3
20260831173020 78 82 1.0 3.0 0.00 0.00 0.00 42 1019.3
20260831172520 77 114 2.0 6.0 0.00 0.00 0.00 44 1019.4
20260831172020 77 118 3.0 6.0 0.00 0.00 0.00 45 1019.4
20260831171540 76 116 1.0 3.0 0.00 0.00 0.00 46 1019.5
20260831171019 76 349 0.0 3.0 0.00 0.00 0.00 49 1019.6
20260831170519 76 232 2.0 4.0 0.00 0.00 0.00 49 1019.6
20260831170019 76 119 1.0 2.0 0.00 0.00 0.00 49 1019.6
20260831165520 76 73 1.0 3.0 0.00 0.00 0.00 43 1019.7
20260831165040 76 353 1.0 3.0 0.00 0.00 0.00 49 1019.8
20260831164520 76 62 0.0 1.0 0.00 0.00 0.00 47 1019.8
20260831164020 75 112 0.0 1.0 0.00 0.00 0.00 48 1019.8
20260831163520 76 87 0.0 1.0 0.00 0.00 0.00 47 1019.7
20260831163019 75 357 0.0 2.0 0.00 0.00 0.00 50 1019.8
20260831162519 75 55 1.0 3.0 0.00 0.00 0.00 45 1020.0
20260831162039 75 65 1.0 3.0 0.00 0.00 0.00 46 1020.0
20260831161521 75 314 0.0 2.0 0.00 0.00 0.00 47 1020.0
20260831161020 76 308 1.0 2.0 0.00 0.00 0.00 44 1020.0
20260831160521 76 34 1.0 3.0 0.00 0.00 0.00 47 1020.1
20260831160020 76 245 1.0 3.0 0.00 0.00 0.00 48 1020.2
20260831155520 75 217 1.0 3.0 0.00 0.00 0.00 47 1020.2
20260831155019 75 253 1.0 3.0 0.00 0.00 0.00 49 1020.2
20260831154519 75 93 2.0 8.0 0.00 0.00 0.00 47 1020.2
20260831154019 75 92 3.0 8.0 0.00 0.00 0.00 49 1020.3
20260831153519 75 119 2.0 3.0 0.00 0.00 0.00 54 1020.3
20260831153021 75 240 1.0 1.0 0.00 0.00 0.00 52 1020.4
20260831152520 75 140 1.0 4.0 0.00 0.00 0.00 52 1020.4
20260831152020 74 115 3.0 8.0 0.00 0.00 0.00 50 1020.5
20260831151520 74 89 2.0 4.0 0.00 0.00 0.00 52 1020.5
20260831151020 74 51 1.0 4.0 0.00 0.00 0.00 51 1020.5
20260831150520 74 150 1.0 4.0 0.00 0.00 0.00 50 1020.3
20260831150019 74 150 2.0 4.0 0.00 0.00 0.00 52 1020.5
20260831145519 72 174 1.0 3.0 0.00 0.00 0.00 58 1020.5
20260831145019 72 160 1.0 1.0 0.00 0.00 0.00 53 1020.4
20260831144521 73 160 1.0 2.0 0.00 0.00 0.00 53 1020.6
20260831144020 72 93 1.0 3.0 0.00 0.00 0.00 52 1020.7
20260831143540 72 75 0.0 3.0 0.00 0.00 0.00 51 1020.7
20260831143100 73 66 1.0 3.0 0.00 0.00 0.00 56 1020.7
20260831142520 73 140 0.0 2.0 0.00 0.00 0.00 50 1020.5
20260831142020 73 158 1.0 4.0 0.00 0.00 0.00 50 1020.5
20260831141519 73 114 2.0 4.0 0.00 0.00 0.00 51 1020.4
20260831141024 72 130 1.0 4.0 0.00 0.00 0.00 55 1020.4
20260831140519 72 124 2.0 6.0 0.00 0.00 0.00 54 1020.4
20260831140021 72 108 2.0 6.0 0.00 0.00 0.00 56 1020.4
20260831135520 72 94 2.0 6.0 0.00 0.00 0.00 51 1020.5
20260831135020 72 112 1.0 4.0 0.00 0.00 0.00 56 1020.6
20260831134520 71 94 2.0 6.0 0.00 0.00 0.00 56 1020.4
20260831134059 71 118 3.0 7.0 0.00 0.00 0.00 58 1020.5
20260831133519 70 128 1.0 3.0 0.00 0.00 0.00 63 1020.4
20260831133019 70 92 1.0 2.0 0.00 0.00 0.00 62 1020.4
20260831132520 70 343 0.0 2.0 0.00 0.00 0.00 60 1020.4
20260831132019 70 82 0.0 2.0 0.00 0.00 0.00 62 1020.4
20260831131520 69 85 1.0 2.0 0.00 0.00 0.00 61 1020.4
20260831131020 69 90 2.0 6.0 0.00 0.00 0.00 63 1020.5
20260831130520 69 86 2.0 4.0 0.00 0.00 0.00 63 1020.4
20260831130020 68 75 2.0 4.0 0.00 0.00 0.00 65 1020.3
20260831125520 68 10 0.0 2.0 0.00 0.00 0.00 66 1020.3
20260831125100 68 15 0.0 2.0 0.00 0.00 0.00 64 1020.4
20260831124519 69 67 2.0 4.0 0.00 0.00 0.00 64 1020.5
20260831124019 69 101 2.0 7.0 0.00 0.00 0.00 66 1020.5
20260831123519 69 111 2.0 4.0 0.00 0.00 0.00 68 1020.4
20260831123021 68 110 3.0 8.0 0.00 0.00 0.00 68 1020.2
20260831122520 67 82 2.0 7.0 0.00 0.00 0.00 71 1020.3
20260831122040 67 53 1.0 3.0 0.00 0.00 0.00 75 1020.2
20260831121520 66 11 0.0 2.0 0.00 0.00 0.00 76 1020.2
20260831121020 66 52 0.0 2.0 0.00 0.00 0.00 76 1020.2
20260831120519 66 12 0.0 1.0 0.00 0.00 0.00 78 1020.2
20260831120019 66 45 0.0 1.0 0.00 0.00 0.00 79 1020.1
20260831115519 65 68 0.0 1.0 0.00 0.00 0.00 81 1020.0
20260831115019 65 68 0.0 1.0 0.00 0.00 0.00 82 1019.9
20260831114520 65 68 0.0 1.0 0.00 0.00 0.00 83 1020.0
20260831114020 65 81 0.0 2.0 0.00 0.00 0.00 85 1019.9
20260831113520 64 167 0.0 1.0 0.00 0.00 0.00 89 1019.9
20260831113021 63 167 1.0 1.0 0.00 0.00 0.00 93 1019.9
20260831112520 61 0.0 0.0 0.00 0.00 0.00 96 1019.7
20260831112019 60 0.0 0.0 0.00 0.00 0.00 97 1019.8
20260831111519 60 0.0 0.0 0.00 0.00 0.00 99 1019.8
20260831111019 59 0.0 0.0 0.00 0.00 0.00 99 1019.6
20260831110539 59 0.0 0.0 0.00 0.00 0.00 99 1019.7
20260831110020 58 0.0 0.0 0.00 0.00 0.00 98 1019.6
20260831105520 58 0.0 0.0 0.00 0.00 0.00 98 1019.5
20260831105040 58 0.0 0.0 0.00 0.00 0.00 98 1019.6
20260831104520 58 0.0 0.0 0.00 0.00 0.00 98 1019.5
20260831104019 58 0.0 0.0 0.00 0.00 0.00 98 1019.6
20260831103519 58 0.0 0.0 0.00 0.00 0.00 98 1019.6
20260831103019 58 0.0 0.0 0.00 0.00 0.00 98 1019.3
20260831102519 58 0.0 0.0 0.00 0.00 0.00 98 1019.4
20260831102018 58 0.0 0.0 0.00 0.00 0.00 97 1019.3
20260831101520 58 0.0 0.0 0.00 0.00 0.00 97 1019.2
20260831101020 58 0.0 0.0 0.00 0.00 0.00 97 1019.2
20260831100520 59 0.0 0.0 0.00 0.00 0.00 97 1019.1
20260831100019 59 0.0 0.0 0.00 0.00 0.00 98 1019.1
20260831095519 59 0.0 0.0 0.00 0.00 0.00 97 1019.0
20260831095019 59 0.0 0.0 0.00 0.00 0.00 97 1019.0
20260831094519 59 0.0 0.0 0.00 0.00 0.00 97 1018.9
20260831094018 59 0.0 0.0 0.00 0.00 0.00 97 1018.9
20260831093601 59 0.0 0.0 0.00 0.00 0.00 97 1018.8
20260831093020 59 0.0 0.0 0.00 0.00 0.00 96 1018.7
20260831092520 60 0.0 0.0 0.00 0.00 0.00 96 1018.7
20260831092019 60 0.0 0.0 0.00 0.00 0.00 96 1018.6
20260831091520 60 0.0 0.0 0.00 0.00 0.00 96 1018.5
20260831091019 60 0.0 0.0 0.00 0.00 0.00 96 1018.5
20260831090519 60 0.0 0.0 0.00 0.00 0.00 95 1018.5
20260831090019 60 0.0 0.0 0.00 0.00 0.00 95 1018.5
20260831085521 61 0.0 0.0 0.00 0.00 0.00 95 1018.4
20260831085020 61 0.0 0.0 0.00 0.00 0.00 95 1018.1
20260831084520 61 0.0 0.0 0.00 0.00 0.00 95 1018.2
20260831084020 61 0.0 0.0 0.00 0.00 0.00 95 1018.1
20260831083520 61 0.0 0.0 0.00 0.00 0.00 95 1018.2
20260831083019 61 0.0 0.0 0.00 0.00 0.00 94 1018.2
20260831082540 61 0.0 0.0 0.00 0.00 0.00 94 1018.1
20260831082039 61 0.0 0.0 0.00 0.00 0.00 94 1018.0
20260831081521 61 0.0 0.0 0.00 0.00 0.00 93 1018.0
20260831081020 62 0.0 0.0 0.00 0.00 0.00 93 1018.0
20260831080520 62 0.0 0.0 0.00 0.00 0.00 93 1018.0
20260831080040 62 0.0 0.0 0.00 0.00 0.00 93 1017.8
20260831075520 62 0.0 0.0 0.00 0.00 0.00 92 1017.7
20260831075020 62 0.0 0.0 0.00 0.00 0.00 91 1017.7
20260831074520 62 0.0 0.0 0.00 0.00 0.00 91 1017.6
20260831074019 63 0.0 0.0 0.00 0.00 0.00 91 1017.6
20260831073519 63 0.0 0.0 0.00 0.00 0.00 91 1017.6
20260831073023 63 0.0 0.0 0.00 0.00 0.00 90 1017.6
20260831072540 63 0.0 0.0 0.00 0.00 0.00 90 1017.5
20260831072020 63 0.0 0.0 0.00 0.00 0.00 89 1017.5
20260831071520 63 0.0 0.0 0.00 0.00 0.00 89 1017.5
20260831071019 64 0.0 0.0 0.00 0.00 0.00 88 1017.6
20260831070519 64 0.0 0.0 0.00 0.00 0.00 87 1017.5
20260831070019 64 0.0 0.0 0.00 0.00 0.00 87 1017.5
20260831065519 65 0.0 0.0 0.00 0.00 0.00 86 1017.7
20260831065020 65 0.0 0.0 0.00 0.00 0.00 86 1017.7
20260831064520 65 168 0.0 1.0 0.00 0.00 0.00 86 1017.6
20260831064020 65 168 0.0 1.0 0.00 0.00 0.00 86 1017.6
20260831063520 65 0.0 0.0 0.00 0.00 0.00 87 1017.6
20260831063021 65 0.0 0.0 0.00 0.00 0.00 87 1017.6
20260831062519 65 0.0 0.0 0.00 0.00 0.00 86 1017.4
20260831062019 65 0.0 0.0 0.00 0.00 0.00 86 1017.4
20260831061521 66 0.0 0.0 0.00 0.00 0.00 85 1017.5
20260831061020 66 0.0 0.0 0.00 0.00 0.00 85 1017.4
20260831060520 66 0.0 0.0 0.00 0.00 0.00 85 1017.3
20260831060020 66 0.0 0.0 0.00 0.00 0.00 84 1017.3
20260831055519 66 0.0 0.0 0.00 0.00 0.00 84 1017.4
20260831055020 66 0.0 0.0 0.00 0.00 0.00 83 1017.2
20260831054519 66 0.0 0.0 0.00 0.00 0.00 83 1017.3
20260831054019 66 0.0 0.0 0.00 0.00 0.00 83 1017.3
20260831053519 67 0.0 0.0 0.00 0.00 0.00 82 1017.2
20260831053021 67 0.0 0.0 0.00 0.00 0.00 82 1017.1
20260831052520 67 0.0 0.0 0.00 0.00 0.00 81 1017.1
20260831052020 67 0.0 0.0 0.00 0.00 0.00 81 1017.0
20260831051520 68 0.0 0.0 0.00 0.00 0.00 80 1016.9
20260831051020 68 0.0 0.0 0.00 0.00 0.00 80 1016.9
20260831050519 68 0.0 0.0 0.00 0.00 0.00 79 1016.9
20260831050019 69 0.0 1.0 0.00 0.00 0.00 78 1017.0
20260831045519 69 168 0.0 1.0 0.00 0.00 0.00 77 1017.0
20260831045018 69 0.0 0.0 0.00 0.00 0.00 77 1016.9
20260831044519 70 168 0.0 1.0 0.00 0.00 0.00 77 1016.8
20260831044020 70 168 0.0 1.0 0.00 0.00 0.00 77 1016.7
20260831043520 70 168 0.0 1.0 0.00 0.00 0.00 78 1016.6
20260831043020 69 168 0.0 1.0 0.00 0.00 0.00 78 1016.8
20260831042520 69 168 0.0 1.0 0.00 0.00 0.00 79 1016.7
20260831042200 70 0.0 1.0 0.00 0.00 0.00 78 1016.7
20260831041519 70 0.0 0.0 0.00 0.00 0.00 78 1016.8
20260831041019 70 0.0 0.0 0.00 0.00 0.00 76 1016.7
20260831040519 71 0.0 0.0 0.00 0.00 0.00 77 1016.7
20260831040020 71 0.0 1.0 0.00 0.00 0.00 77 1016.7
20260831035520 71 168 0.0 1.0 0.00 0.00 0.00 77 1016.6
20260831035021 71 0.0 0.0 0.00 0.00 0.00 77 1016.6
20260831034520 71 0.0 0.0 0.00 0.00 0.00 77 1016.6
20260831034020 71 177 0.0 1.0 0.00 0.00 0.00 79 1016.6
20260831033519 71 184 0.0 1.0 0.00 0.00 0.00 79 1016.6
20260831033019 71 200 0.0 1.0 0.00 0.00 0.00 80 1016.6
20260831032519 71 225 0.0 1.0 0.00 0.00 0.00 80 1016.7
20260831032019 71 224 0.0 1.0 0.00 0.00 0.00 80 1016.5
20260831031541 71 224 0.0 1.0 0.00 0.00 0.00 81 1016.6
20260831031018 71 242 0.0 1.0 0.00 0.00 0.00 81 1016.6
20260831030520 71 250 0.0 1.0 0.00 0.00 0.00 80 1016.6
20260831030020 71 250 0.0 1.0 0.00 0.00 0.00 79 1016.6
20260831025520 71 252 0.0 3.0 0.00 0.00 0.00 80 1016.4
20260831025019 71 0.0 1.0 0.00 0.00 0.00 79 1016.6
20260831024519 71 0.0 1.0 0.00 0.00 0.00 79 1016.7
20260831024019 71 0.0 0.0 0.00 0.00 0.00 79 1016.5
20260831023519 71 0.0 1.0 0.00 0.00 0.00 78 1016.6
20260831023018 72 280 0.0 2.0 0.00 0.00 0.00 78 1016.5
20260831022538 72 279 0.0 2.0 0.00 0.00 0.00 76 1016.6
20260831022040 72 227 0.0 2.0 0.00 0.00 0.00 76 1016.6
20260831021520 72 148 0.0 1.0 0.00 0.00 0.00 75 1016.6
20260831021019 73 0.0 1.0 0.00 0.00 0.00 74 1016.5
20260831020519 73 158 0.0 1.0 0.00 0.00 0.00 74 1016.6
20260831020021 73 0.0 1.0 0.00 0.00 0.00 73 1016.5
20260831015521 73 234 0.0 1.0 0.00 0.00 0.00 72 1016.4
20260831015041 73 202 0.0 2.0 0.00 0.00 0.00 71 1016.4
20260831014520 73 238 1.0 2.0 0.00 0.00 0.00 71 1016.4
20260831014020 73 10 0.0 2.0 0.00 0.00 0.00 71 1016.4
20260831013601 73 282 1.0 3.0 0.00 0.00 0.00 71 1016.2
20260831013020 73 177 1.0 3.0 0.00 0.00 0.00 71 1016.2
20260831012519 73 134 1.0 4.0 0.00 0.00 0.00 70 1016.2
20260831012019 73 299 0.0 3.0 0.00 0.00 0.00 70 1016.0
20260831011521 74 293 0.0 1.0 0.00 0.00 0.00 70 1016.0
20260831011020 74 244 0.0 2.0 0.00 0.00 0.00 69 1016.1
20260831010519 74 127 0.0 2.0 0.00 0.00 0.00 69 1016.1
20260831010019 74 268 1.0 4.0 0.00 0.00 0.00 68 1016.1
20260831005519 74 194 1.0 4.0 0.00 0.00 0.00 69 1016.0
20260831005021 74 334 0.0 4.0 0.00 0.00 0.00 68 1015.9
20260831004521 74 301 1.0 3.0 0.00 0.00 0.00 67 1015.9
20260831004040 74 132 1.0 3.0 0.00 0.00 0.00 67 1015.9
20260831003540 74 226 1.0 4.0 0.00 0.00 0.00 66 1015.8
20260831003020 74 183 1.0 4.0 0.00 0.00 0.00 66 1015.8
20260831002520 74 182 1.0 6.0 0.00 0.00 0.00 66 1015.8
20260831002020 74 224 2.0 4.0 0.00 0.00 0.00 65 1015.7
20260831001539 74 187 1.0 7.0 0.00 0.00 0.00 65 1015.5
20260831001101 74 186 1.0 7.0 0.00 0.00 0.00 65 1015.7
20260831000521 75 240 1.0 3.0 0.00 0.00 0.00 64 1015.6
20260831000020 75 198 1.0 3.0 0.00 0.00 0.00 64 1015.5
20260830233019 75 144 1.0 3.0 0.00 0.00 0.00 62 1015.4
20260830232519 75 287 1.0 8.0 0.00 0.00 0.00 62 1015.3
20260830232101 76 208 2.0 8.0 0.00 0.00 0.00 61 1015.3
20260830231519 76 204 2.0 9.0 0.00 0.00 0.00 60 1015.4
20260830231020 76 205 2.0 7.0 0.00 0.00 0.00 59 1015.4
20260830230520 76 166 1.0 6.0 0.00 0.00 0.00 59 1015.5
20260830230020 76 203 2.0 7.0 0.00 0.00 0.00 58 1015.5
20260830225520 76 170 1.0 7.0 0.00 0.00 0.00 57 1015.5
20260830225019 77 185 2.0 10.0 0.00 0.00 0.00 56 1015.6
20260830224519 77 212 2.0 10.0 0.00 0.00 0.00 56 1015.6
20260830224019 77 252 1.0 2.0 0.00 0.00 0.00 56 1015.6
20260830223539 77 241 1.0 7.0 0.00 0.00 0.00 55 1015.6
20260830223020 77 201 2.0 7.0 0.00 0.00 0.00 55 1015.8
20260830222520 77 245 1.0 6.0 0.00 0.00 0.00 54 1015.8
20260830222020 77 207 2.0 10.0 0.00 0.00 0.00 54 1015.8
20260830221520 77 208 1.0 3.0 0.00 0.00 0.00 54 1015.8
20260830221019 77 159 0.0 7.0 0.00 0.00 0.00 53 1015.7
20260830220519 77 204 1.0 7.0 0.00 0.00 0.00 54 1015.8
20260830220040 77 201 2.0 6.0 0.00 0.00 0.00 53 1015.7
20260830215519 77 227 2.0 7.0 0.00 0.00 0.00 53 1015.9
20260830215021 77 299 1.0 6.0 0.00 0.00 0.00 53 1015.9
20260830214521 78 254 1.0 6.0 0.00 0.00 0.00 53 1015.8
20260830214020 78 237 1.0 6.0 0.00 0.00 0.00 51 1015.9
20260830213520 78 190 1.0 6.0 0.00 0.00 0.00 52 1016.1
20260830213040 78 234 0.0 4.0 0.00 0.00 0.00 51 1016.0
20260830212520 78 205 2.0 7.0 0.00 0.00 0.00 51 1016.1
20260830212019 78 210 1.0 7.0 0.00 0.00 0.00 52 1016.1
20260830211519 78 141 1.0 6.0 0.00 0.00 0.00 52 1016.0
20260830211019 78 202 1.0 6.0 0.00 0.00 0.00 52 1016.1
20260830210520 78 233 1.0 7.0 0.00 0.00 0.00 53 1016.0
20260830210043 78 239 1.0 7.0 0.00 0.00 0.00 53 1015.9
20260830205520 78 210 2.0 8.0 0.00 0.00 0.00 54 1015.9
20260830205020 78 242 1.0 3.0 0.00 0.00 0.00 53 1015.9
20260830204519 78 202 1.0 7.0 0.00 0.00 0.00 54 1015.8
20260830204019 78 173 1.0 6.0 0.00 0.00 0.00 53 1016.0
20260830203519 78 180 1.0 4.0 0.00 0.00 0.00 54 1016.1
20260830203020 78 244 0.0 2.0 0.00 0.00 0.00 53 1016.1
20260830202521 78 193 0.0 6.0 0.00 0.00 0.00 54 1016.2
20260830202020 78 198 1.0 6.0 0.00 0.00 0.00 52 1016.2
20260830201540 78 218 1.0 6.0 0.00 0.00 0.00 50 1016.3
20260830201020 79 138 1.0 9.0 0.00 0.00 0.00 51 1016.4
20260830200519 79 225 2.0 9.0 0.00 0.00 0.00 52 1016.5
20260830200020 79 26 1.0 2.0 0.00 0.00 0.00 52 1016.5
20260830195539 79 215 1.0 4.0 0.00 0.00 0.00 52 1016.5
20260830195021 79 223 1.0 3.0 0.00 0.00 0.00 52 1016.5
20260830194521 79 31 0.0 3.0 0.00 0.00 0.00 53 1016.7
20260830194020 79 318 1.0 6.0 0.00 0.00 0.00 51 1016.8
20260830193520 79 270 1.0 4.0 0.00 0.00 0.00 51 1016.8
20260830193040 79 216 2.0 9.0 0.00 0.00 0.00 50 1016.9
20260830192520 79 287 2.0 7.0 0.00 0.00 0.00 50 1017.0
20260830192039 80 261 1.0 6.0 0.00 0.00 0.00 48 1017.0
20260830191540 80 286 2.0 6.0 0.00 0.00 0.00 49 1017.1
20260830191019 80 302 2.0 6.0 0.00 0.00 0.00 49 1017.1
20260830190519 80 275 1.0 9.0 0.00 0.00 0.00 48 1017.3
20260830190042 80 297 1.0 8.0 0.00 0.00 0.00 48 1017.3
20260830185520 80 327 1.0 4.0 0.00 0.00 0.00 47 1017.3
20260830185020 80 322 0.0 6.0 0.00 0.00 0.00 47 1017.3
20260830184520 81 294 2.0 7.0 0.00 0.00 0.00 48 1017.3
20260830184020 81 340 1.0 3.0 0.00 0.00 0.00 46 1017.4
20260830183519 80 207 1.0 4.0 0.00 0.00 0.00 45 1017.4
20260830183019 80 317 1.0 4.0 0.00 0.00 0.00 46 1017.4
20260830182519 80 296 2.0 6.0 0.00 0.00 0.00 45 1017.4
20260830182021 80 303 1.0 6.0 0.00 0.00 0.00 46 1017.5
20260830181518 80 34 1.0 3.0 0.00 0.00 0.00 46 1017.5
20260830181020 81 298 2.0 7.0 0.00 0.00 0.00 46 1017.4
20260830180540 81 293 2.0 10.0 0.00 0.00 0.00 45 1017.5
20260830180020 81 214 2.0 9.0 0.00 0.00 0.00 45 1017.7
20260830175519 81 265 3.0 13.0 0.00 0.00 0.00 45 1017.8
20260830175019 82 320 1.0 6.0 0.00 0.00 0.00 45 1017.8